DateTimeUTC,F1_A11,F1_S11,BsB_S11,BsG_S11,BsR_S11,BbsB_S11,BbsG_S11,BbsR_S11,BaB_A11,BaG_A11,BaR_A11,T_S11,U_S11,P_S11,T1_A11
2020-08-21T00:00:00Z,00000388,20000608,,,,,,,,,,25.4,07.8,0679.8,30.9
2020-08-21T00:01:00Z,00000388,20000608,,,,,,,,,,25.4,07.8,0679.8,31.0
2020-08-21T00:02:00Z,00000388,20000608,,,,,,,,,,25.4,07.8,0679.8,31.0
2020-08-21T00:03:00Z,00000388,60000608,,,,,,,,,,25.4,07.8,0679.8,31.0
2020-08-21T00:04:00Z,00000388,40000608,0007.45,0004.64,0001.80,0000.77,0000.58,0000.51,0000.18,-000.05,0000.06,25.2,07.8,0680.7,31.0
2020-08-21T00:05:00Z,00000388,00000608,0008.74,0004.61,0002.05,0001.22,0000.60,0000.48,0000.00,0000.09,0000.09,25.2,07.8,0680.7,31.0
2020-08-21T00:06:00Z,00000388,00000608,0007.80,0004.56,0002.34,0000.58,0000.30,0000.45,0000.12,0000.16,0000.11,25.1,07.8,0680.7,31.0
2020-08-21T00:07:00Z,00000388,00000608,0008.14,0004.84,0002.19,0000.12,0000.86,0000.49,-000.18,-000.05,-000.05,25.1,07.8,0680.7,31.0
2020-08-21T00:08:00Z,00000388,00000608,0006.72,0004.01,0001.75,0001.01,0000.77,0000.76,0000.14,-000.03,0000.12,25.1,07.9,0680.7,31.0
2020-08-21T00:09:00Z,00000388,00000608,0007.13,0004.21,0002.41,0001.29,0000.65,0000.63,0000.03,0000.05,-000.02,25.1,07.9,0680.7,31.0
2020-08-21T00:10:00Z,00000388,00000608,0007.13,0004.76,0002.67,0000.86,0000.67,0000.95,0000.10,0000.11,0000.15,25.1,07.9,0680.7,31.0
2020-08-21T00:11:00Z,00000388,00000608,0007.15,0004.75,0002.20,0001.26,0000.44,0000.42,-000.12,0000.03,-000.18,25.1,07.9,0680.7,31.0
2020-08-21T00:12:00Z,00000388,00000608,0006.77,0004.56,0002.28,0001.01,0000.35,0000.71,0000.02,0000.09,0000.22,25.1,07.9,0680.7,31.0
2020-08-21T00:13:00Z,00000388,00000608,0007.99,0004.96,0002.31,0000.93,0000.56,0000.72,0000.13,0000.11,0000.20,25.1,07.9,0680.7,31.0
2020-08-21T00:14:00Z,00000388,00000608,0006.40,0004.34,0002.13,0000.50,0000.51,0000.44,-000.03,0000.14,-000.09,25.1,08.0,0680.7,31.0
2020-08-21T00:15:00Z,00000388,00000608,0009.02,0004.58,0002.47,0001.06,0000.82,0000.50,0000.06,-000.11,-000.03,25.0,07.9,0680.7,31.0
2020-08-21T00:16:00Z,00000388,00000608,0007.43,0004.65,0002.56,0000.52,0000.59,0000.22,0000.11,0000.13,0000.31,25.0,08.0,0680.7,31.0
2020-08-21T00:17:00Z,00000388,00000608,0007.13,0004.82,0001.99,0001.22,0000.71,-000.07,-000.11,-000.12,-000.08,25.0,07.9,0680.7,31.0
2020-08-21T00:18:00Z,00000388,00000608,0008.41,0005.27,0002.60,0000.69,0000.34,0000.95,0000.06,-000.04,0000.05,25.0,07.9,0680.7,31.0
2020-08-21T00:19:00Z,00000388,00000608,0008.00,0005.48,0002.64,0001.06,0000.86,0000.59,0000.13,0000.33,0000.06,25.0,08.0,0680.7,31.0
2020-08-21T00:20:00Z,00000388,00000608,0008.43,0005.76,0002.45,0001.48,0000.89,0000.50,-000.04,-000.04,0000.12,25.0,08.0,0680.7,31.0
2020-08-21T00:21:00Z,00000388,00000608,0009.42,0006.33,0002.93,0001.06,0000.83,0000.20,0000.19,0000.11,-000.03,25.0,08.0,0680.7,31.0
2020-08-21T00:22:00Z,00000388,00000608,0009.09,0005.42,0002.41,0001.34,0000.57,0000.80,0000.02,0000.04,0000.11,25.0,08.0,0680.8,31.0
2020-08-21T00:23:00Z,00000388,00000608,0009.79,0005.34,0002.56,0001.20,0001.08,0000.47,-000.03,0000.01,0000.01,25.0,08.0,0680.8,31.0
2020-08-21T00:24:00Z,00000388,00000608,0008.49,0005.51,0002.58,0001.13,0000.51,0000.56,0000.19,0000.02,0000.22,25.0,08.0,0680.8,31.0
2020-08-21T00:25:00Z,00000388,00000608,0010.44,0005.18,0002.70,0000.34,0000.86,0000.42,-000.11,0000.21,0000.02,25.0,07.9,0680.8,31.0
2020-08-21T00:26:00Z,00000388,00000608,0007.34,0005.37,0003.13,0000.84,0000.44,0000.45,0000.08,-000.03,0000.08,25.0,08.0,0680.8,31.0
2020-08-21T00:27:00Z,00000388,00000608,0009.46,0005.62,0002.84,0001.41,0000.82,0000.62,0000.10,0000.06,0000.11,25.0,08.0,0680.8,31.0
2020-08-21T00:28:00Z,00000388,00000608,0009.00,0005.59,0003.13,0000.83,0001.03,0000.71,-000.02,0000.17,0000.09,24.9,08.0,0680.8,31.0
2020-08-21T00:29:00Z,00000388,00000608,0008.40,0006.00,0002.66,0000.35,0000.60,0000.92,0000.09,-000.03,-000.13,24.9,08.0,0680.8,31.0
2020-08-21T00:30:00Z,00000388,00000608,0008.54,0005.63,0002.30,0000.41,0000.54,0000.60,0000.06,0000.05,0000.21,25.0,08.0,0680.8,31.0
2020-08-21T00:31:00Z,00000388,00000608,0009.47,0005.74,0002.75,0000.99,0000.79,0000.18,-000.01,-000.04,0000.05,25.0,08.0,0680.8,30.9
2020-08-21T00:32:00Z,00000388,00000608,0008.80,0005.11,0002.87,0000.41,0000.87,0001.06,0000.08,0000.14,0000.05,24.9,08.0,0680.8,31.0
2020-08-21T00:33:00Z,00000388,00000608,0009.71,0005.84,0002.48,0001.56,0000.66,0000.72,0000.11,0000.11,0000.09,24.9,08.0,0680.8,31.0
2020-08-21T00:34:00Z,00000388,00000608,0009.58,0005.39,0003.03,0001.70,0000.36,0000.91,-000.09,0000.09,-000.03,24.9,08.0,0680.8,31.0
2020-08-21T00:35:00Z,00000388,00000608,0009.58,0005.11,0003.01,0001.43,0000.64,0000.85,0000.10,0000.00,0000.20,24.9,08.0,0680.8,31.0
2020-08-21T00:36:00Z,00000388,00000608,0009.74,0006.22,0002.56,0001.02,0000.52,0000.39,0000.14,0000.13,0000.12,24.9,08.0,0680.8,31.0
2020-08-21T00:37:00Z,00000388,00000608,0009.48,0005.92,0002.55,0000.74,0000.81,0000.79,-000.23,-000.08,-000.10,24.9,08.0,0680.8,31.0
2020-08-21T00:38:00Z,00000388,00000608,0009.65,0006.26,0002.46,0001.67,0000.76,0000.63,0000.24,0000.14,0000.31,24.9,08.1,0680.8,31.0
2020-08-21T00:39:00Z,00000388,00000608,0009.55,0006.57,0002.83,0000.49,0001.20,0000.89,0000.08,0000.00,-000.07,24.9,08.1,0680.8,31.0
2020-08-21T00:40:00Z,00000388,00000608,0009.38,0006.39,0003.01,0001.88,0000.92,0001.11,0000.01,0000.11,0000.10,24.9,08.0,0680.8,30.9
2020-08-21T00:41:00Z,00000388,00000608,0010.96,0006.41,0002.97,0000.87,0000.62,0000.65,0000.08,0000.17,0000.04,24.9,08.1,0680.8,31.0
2020-08-21T00:42:00Z,00000388,00000608,0009.59,0005.95,0002.90,0001.26,0000.85,0000.92,0000.02,0000.07,0000.11,24.9,08.1,0680.7,31.0
2020-08-21T00:43:00Z,00000388,00000608,0009.29,0005.89,0003.39,0001.22,0000.80,0000.61,0000.01,0000.07,-000.02,24.9,08.1,0680.8,30.9
2020-08-21T00:44:00Z,00000388,00000608,0010.55,0005.61,0003.06,0001.55,0000.74,0000.74,0000.09,-000.10,0000.19,24.9,08.1,0680.7,30.9
2020-08-21T00:45:00Z,00000388,00000608,0010.14,0005.71,0003.04,0001.25,0000.78,0000.95,-000.01,0000.09,0000.04,24.9,08.2,0680.7,31.0
2020-08-21T00:46:00Z,00000388,00000608,0010.19,0006.56,0003.18,0001.08,0000.75,0000.66,0000.16,0000.01,0000.05,24.9,08.1,0680.7,31.0
2020-08-21T00:47:00Z,00000388,00000608,0010.26,0006.43,0002.88,0001.34,0001.01,0000.98,-000.12,0000.11,0000.04,24.9,08.1,0680.7,30.9
2020-08-21T00:48:00Z,00000388,00000608,0010.58,0006.92,0003.25,0000.58,0001.03,0000.88,0000.25,0000.04,0000.23,24.8,08.2,0680.7,30.9
2020-08-21T00:49:00Z,00000388,00000608,0009.31,0005.58,0002.94,0001.72,0000.83,0000.70,-000.08,0000.11,-000.07,24.8,08.2,0680.7,31.0
2020-08-21T00:50:00Z,00000388,00000608,0009.03,0005.83,0002.68,0001.20,0000.85,0000.46,0000.05,0000.09,0000.09,24.8,08.2,0680.7,31.0
2020-08-21T00:51:00Z,00000388,00000608,0009.84,0005.56,0003.15,0001.47,0000.78,0000.41,0000.07,-000.01,0000.02,24.8,08.2,0680.7,31.0
2020-08-21T00:52:00Z,00000388,00000608,0010.51,0006.04,0003.02,0000.52,0000.98,0001.08,-000.01,0000.06,0000.15,24.8,08.2,0680.7,31.0
2020-08-21T00:53:00Z,00000388,00000608,0009.25,0005.94,0002.98,0000.32,0000.94,0000.40,0000.05,0000.03,0000.04,24.8,08.2,0680.7,31.0
2020-08-21T00:54:00Z,00000388,00000608,0010.55,0006.13,0002.88,0001.62,0000.76,0000.71,0000.08,0000.12,0000.18,24.8,08.3,0680.7,30.9
2020-08-21T00:55:00Z,00000388,00000608,0010.53,0005.97,0003.17,0000.50,0000.58,0001.08,0000.02,0000.15,0000.07,24.8,08.2,0680.7,30.9
2020-08-21T00:56:00Z,00000388,00000608,0009.96,0006.46,0002.10,0001.32,0000.87,0000.58,0000.00,-000.04,-000.02,24.8,08.2,0680.7,30.9
2020-08-21T00:57:00Z,00000388,40000608,,,,,,,,,,24.8,08.3,0680.9,30.9
2020-08-21T00:58:00Z,00000388,60000608,,,,,,,,,,24.9,08.1,0679.8,30.9
2020-08-21T00:59:00Z,00000388,20000608,,,,,,,,,,25.0,08.1,0679.8,30.9
2020-08-21T01:00:00Z,00000388,20000608,,,,,,,,,,25.0,07.9,0679.7,30.9
2020-08-21T01:01:00Z,00000388,20000608,,,,,,,,,,25.0,07.9,0679.7,30.9
2020-08-21T01:02:00Z,00000388,20000608,,,,,,,,,,25.0,07.9,0679.7,30.9
2020-08-21T01:03:00Z,00000388,60000608,,,,,,,,,,25.0,07.9,0679.7,30.9
2020-08-21T01:04:00Z,00000388,40000608,0010.01,0006.20,0002.71,0001.44,0001.03,0000.20,0000.13,0000.09,0000.12,24.9,08.1,0680.6,30.9
2020-08-21T01:05:00Z,00000388,00000608,0009.63,0005.70,0002.58,0000.83,0000.66,0000.31,0000.02,0000.03,-000.07,24.8,08.1,0680.7,30.9
2020-08-21T01:06:00Z,00000388,00000608,0010.47,0005.75,0003.58,0000.86,0000.79,0000.56,0000.05,-000.02,0000.10,24.8,08.2,0680.7,30.9
2020-08-21T01:07:00Z,00000388,00000608,0009.27,0006.01,0002.64,0000.76,0000.61,0000.72,-000.05,0000.15,0000.11,24.8,08.1,0680.7,30.9
2020-08-21T01:08:00Z,00000388,00000608,0010.46,0005.99,0002.54,0000.92,0000.65,0000.48,0000.03,0000.00,0000.12,24.8,08.2,0680.7,30.9
2020-08-21T01:09:00Z,00000388,00000608,0010.43,0006.46,0002.99,0001.41,0000.55,0001.03,0000.16,0000.08,-000.04,24.8,08.2,0680.7,30.9
2020-08-21T01:10:00Z,00000388,00000608,0010.54,0006.66,0003.73,0001.45,0000.58,0000.98,0000.11,0000.12,0000.17,24.8,08.2,0680.7,30.9
2020-08-21T01:11:00Z,00000388,00000608,0010.18,0006.47,0003.76,0001.36,0000.96,0000.57,-000.02,0000.07,0000.03,24.8,08.3,0680.7,30.9
2020-08-21T01:12:00Z,00000388,00000608,0010.46,0006.52,0003.30,0001.65,0000.75,0000.62,0000.10,0000.18,0000.11,24.7,08.3,0680.7,30.9
2020-08-21T01:13:00Z,00000388,00000608,0011.33,0007.04,0003.32,0001.05,0000.51,0000.52,0000.13,0000.05,0000.19,24.7,08.3,0680.7,30.9
2020-08-21T01:14:00Z,00000388,00000608,0012.07,0006.70,0003.67,0001.57,0000.74,0000.67,-000.06,0000.07,0000.01,24.7,08.4,0680.7,30.9
2020-08-21T01:15:00Z,00000388,00000608,0010.72,0006.81,0003.25,0001.85,0000.92,0000.75,-000.10,-000.10,0000.03,24.7,08.3,0680.7,30.9
2020-08-21T01:16:00Z,00000388,00000608,0012.16,0006.47,0003.91,0001.26,0000.88,0000.70,0000.16,0000.18,0000.08,24.7,08.3,0680.7,30.9
2020-08-21T01:17:00Z,00000388,00000608,0011.45,0006.60,0002.77,0000.83,0000.99,0000.94,0000.12,0000.10,0000.12,24.7,08.3,0680.7,31.0
2020-08-21T01:18:00Z,00000388,00000608,0011.91,0006.55,0003.33,0001.16,0000.80,0000.73,-000.03,0000.07,0000.09,24.7,08.4,0680.7,31.0
2020-08-21T01:19:00Z,00000388,00000608,0011.46,0006.53,0003.66,0001.64,0000.95,0000.77,-000.02,-000.03,0000.04,24.7,08.4,0680.7,30.9
2020-08-21T01:20:00Z,00000388,00000608,0010.83,0006.94,0003.62,0001.86,0000.99,0001.06,-000.02,0000.04,0000.09,24.7,08.4,0680.7,30.9
2020-08-21T01:21:00Z,00000388,00000608,0012.33,0007.33,0003.31,0000.76,0000.83,0000.70,0000.10,0000.09,0000.15,24.7,08.4,0680.6,30.9
2020-08-21T01:22:00Z,00000388,00000608,0011.54,0006.48,0003.52,0001.93,0000.80,0000.83,-000.01,0000.03,-000.10,24.7,08.4,0680.6,30.9
2020-08-21T01:23:00Z,00000388,00000608,0011.48,0006.66,0003.80,0001.70,0000.68,0000.83,0000.09,0000.07,0000.13,24.7,08.5,0680.6,30.9
2020-08-21T01:24:00Z,00000388,00000608,0012.32,0006.74,0003.39,0000.88,0000.74,0000.47,0000.02,0000.09,0000.08,24.7,08.4,0680.6,30.9
2020-08-21T01:25:00Z,00000388,00000608,0011.13,0006.75,0003.14,0001.69,0000.60,0001.22,0000.12,0000.04,0000.14,24.7,08.4,0680.6,30.9
2020-08-21T01:26:00Z,00000388,00000608,0011.34,0006.41,0003.35,0001.15,0000.92,0000.71,-000.00,0000.16,0000.20,24.7,08.4,0680.6,30.9
2020-08-21T01:27:00Z,00000388,00000608,0011.20,0006.85,0003.56,0001.06,0001.08,0000.59,0000.10,0000.06,-000.02,24.7,08.5,0680.6,30.9
2020-08-21T01:28:00Z,00000388,00000608,0011.29,0006.90,0003.77,0001.27,0000.50,0000.82,0000.03,0000.06,-000.03,24.7,08.5,0680.6,30.9
2020-08-21T01:29:00Z,00000388,00000608,0012.06,0007.57,0003.95,0002.79,0001.06,0000.69,0000.05,0000.16,0000.17,24.7,08.5,0680.6,30.9
2020-08-21T01:30:00Z,00000388,00000608,0011.81,0007.34,0003.86,0001.31,0000.89,0000.54,-000.00,-000.03,0000.08,24.7,08.5,0680.6,30.9
2020-08-21T01:31:00Z,00000388,00000608,0011.40,0006.77,0003.62,0001.94,0000.76,0000.24,0000.08,0000.16,0000.06,24.7,08.4,0680.6,30.9
2020-08-21T01:32:00Z,00000388,00000608,0011.53,0007.08,0003.21,0002.07,0000.69,0000.53,-000.02,-000.03,0000.04,24.7,08.4,0680.6,30.9
2020-08-21T01:33:00Z,00000388,00000608,0012.43,0007.24,0002.89,0000.88,0000.61,0000.27,0000.04,0000.18,0000.14,24.7,08.5,0680.6,30.9
2020-08-21T01:34:00Z,00000388,00000608,0011.68,0006.79,0003.49,0001.35,0000.64,0000.63,0000.07,-000.02,0000.14,24.7,08.5,0680.6,30.9
2020-08-21T01:35:00Z,00000388,00000608,0010.16,0006.71,0003.55,0000.74,0001.53,0000.94,-000.02,-000.11,0000.01,24.6,08.4,0680.6,30.9
2020-08-21T01:36:00Z,00000388,00000608,0009.62,0006.33,0003.21,0000.90,0001.05,0000.59,-000.00,0000.10,-000.05,24.6,08.5,0680.5,30.9
2020-08-21T01:37:00Z,00000388,00000608,0010.88,0006.83,0003.21,0001.67,0000.37,0001.01,-000.05,0000.02,0000.06,24.6,08.5,0680.5,30.9
2020-08-21T01:38:00Z,00000388,00000608,0009.82,0006.37,0003.59,0001.49,0000.72,0000.94,0000.09,0000.17,0000.08,24.6,08.5,0680.5,30.9
2020-08-21T01:39:00Z,00000388,00000608,0010.27,0006.48,0003.51,0001.80,0000.49,0000.52,-000.11,-000.09,0000.16,24.6,08.5,0680.6,30.9
2020-08-21T01:40:00Z,00000388,00000608,0011.66,0006.10,0003.21,0001.98,0000.66,0001.14,0000.18,0000.24,0000.15,24.6,08.5,0680.6,30.9
2020-08-21T01:41:00Z,00000388,00000608,0011.36,0006.62,0003.69,0001.17,0000.89,0000.57,0000.05,-000.00,-000.13,24.6,08.5,0680.6,30.9
2020-08-21T01:42:00Z,00000388,00000608,0010.96,0006.61,0003.80,0001.54,0000.87,0000.79,0000.02,0000.03,0000.16,24.6,08.5,0680.6,30.9
2020-08-21T01:43:00Z,00000388,00000608,0010.91,0006.53,0003.47,0001.34,0000.85,0000.69,0000.10,0000.14,0000.17,24.6,08.6,0680.6,30.9
2020-08-21T01:44:00Z,00000388,00000608,0010.53,0006.71,0003.62,0001.76,0000.57,0000.79,-000.07,0000.01,-000.02,24.6,08.5,0680.6,30.9
2020-08-21T01:45:00Z,00000388,00000608,0010.63,0006.79,0003.23,0001.33,0000.92,0000.83,0000.19,0000.14,0000.06,24.6,08.5,0680.6,30.9
2020-08-21T01:46:00Z,00000388,00000608,0010.78,0006.02,0003.71,0001.41,0000.72,0000.94,0000.00,0000.05,0000.25,24.6,08.5,0680.6,30.9
2020-08-21T01:47:00Z,00000388,00000608,0010.45,0006.78,0003.53,0001.30,0000.66,0000.59,-000.02,-000.01,-000.05,24.6,08.6,0680.6,30.9
2020-08-21T01:48:00Z,00000388,00000608,0011.02,0006.45,0003.76,0001.17,0000.84,0000.49,0000.01,0000.03,-000.03,24.6,08.5,0680.6,30.9
2020-08-21T01:49:00Z,00000388,00000608,0010.52,0006.18,0003.00,0001.75,0000.82,0000.25,-000.01,0000.07,0000.04,24.6,08.5,0680.6,30.9
2020-08-21T01:50:00Z,00000388,00000608,0009.40,0006.03,0002.73,0000.88,0000.43,0000.78,0000.01,0000.12,0000.13,24.6,08.6,0680.5,30.9
2020-08-21T01:51:00Z,00000388,00000608,0010.33,0006.39,0002.87,0001.25,0000.90,0000.45,0000.08,0000.09,0000.07,24.6,08.6,0680.5,30.9
2020-08-21T01:52:00Z,00000388,00000608,0010.20,0006.29,0003.50,0000.84,0000.85,0000.75,0000.12,-000.09,0000.15,24.6,08.5,0680.5,30.9
2020-08-21T01:53:00Z,00000388,00000608,0010.19,0006.61,0003.64,0001.02,0000.94,0000.38,0000.02,0000.17,-000.03,24.6,08.6,0680.6,30.9
2020-08-21T01:54:00Z,00000388,00000608,0011.13,0006.14,0002.94,0001.44,0000.84,0000.84,-000.09,-000.05,0000.10,24.6,08.6,0680.5,30.9
2020-08-21T01:55:00Z,00000388,00000608,0010.32,0006.16,0003.03,0001.75,0000.89,0000.57,0000.08,0000.09,-000.01,24.6,08.6,0680.5,30.9
2020-08-21T01:56:00Z,00000388,00000608,0010.00,0005.91,0002.77,0001.62,0001.03,0000.62,-000.01,0000.08,0000.18,24.6,08.5,0680.5,30.9
2020-08-21T01:57:00Z,00000388,40000608,,,,,,,,,,24.6,08.7,0680.6,30.9
2020-08-21T01:58:00Z,00000388,60000608,,,,,,,,,,24.7,08.5,0679.5,30.9
2020-08-21T01:59:00Z,00000388,20000608,,,,,,,,,,24.8,08.3,0679.5,30.9
2020-08-21T02:00:00Z,00000388,20000608,,,,,,,,,,24.8,08.3,0679.5,30.9
2020-08-21T02:01:00Z,00000388,20000608,,,,,,,,,,24.8,08.3,0679.5,30.9
2020-08-21T02:02:00Z,00000388,20000608,,,,,,,,,,24.8,08.3,0679.5,30.9
2020-08-21T02:03:00Z,00000388,60000608,,,,,,,,,,24.8,08.3,0679.5,30.9
2020-08-21T02:04:00Z,00000388,40000608,0009.80,0005.27,0002.64,0000.68,0000.97,0000.69,-000.05,0000.11,0000.14,24.7,08.4,0680.4,30.9
2020-08-21T02:05:00Z,00000388,00000608,0008.11,0005.36,0002.96,0001.90,0000.90,0000.84,0000.20,0000.01,0000.16,24.6,08.5,0680.5,30.9
2020-08-21T02:06:00Z,00000388,00000608,0009.21,0005.46,0002.49,0001.33,0000.35,0000.71,-000.04,0000.06,-000.09,24.6,08.5,0680.5,30.9
2020-08-21T02:07:00Z,00000388,00000608,0010.45,0005.99,0003.07,0001.55,0000.41,0000.78,0000.06,0000.02,0000.06,24.6,08.5,0680.4,30.9
2020-08-21T02:08:00Z,00000388,00000608,0010.07,0006.00,0003.28,0002.10,0000.97,0000.71,-000.00,0000.09,0000.05,24.6,08.5,0680.5,30.9
2020-08-21T02:09:00Z,00000388,00000608,0009.16,0006.69,0003.01,0001.37,0000.46,0000.40,0000.07,0000.10,0000.10,24.6,08.6,0680.5,30.9
2020-08-21T02:10:00Z,00000388,00000608,0009.16,0005.86,0003.38,0001.06,0000.84,0000.70,-000.05,0000.02,0000.04,24.6,08.5,0680.5,30.9
2020-08-21T02:11:00Z,00000388,00000608,0011.48,0006.25,0002.87,0001.47,0000.77,0000.65,0000.05,0000.04,0000.06,24.6,08.5,0680.5,30.9
2020-08-21T02:12:00Z,00000388,00000608,0010.90,0005.46,0002.77,0000.84,0000.63,0000.45,0000.07,0000.07,0000.16,24.6,08.5,0680.5,30.9
2020-08-21T02:13:00Z,00000388,00000608,0010.43,0006.71,0003.35,0001.26,0001.00,0000.63,0000.02,-000.05,0000.05,24.6,08.6,0680.5,30.9
2020-08-21T02:14:00Z,00000388,00000608,0011.32,0006.92,0004.01,0001.88,0001.28,0000.65,0000.10,0000.20,0000.02,24.6,08.6,0680.5,30.9
2020-08-21T02:15:00Z,00000388,00000608,0012.15,0007.51,0003.76,0001.37,0000.60,0000.52,-000.01,0000.09,0000.15,24.6,08.5,0680.5,30.9
2020-08-21T02:16:00Z,00000388,00000608,0011.11,0007.01,0003.39,0001.94,0001.01,0000.35,0000.16,0000.06,0000.23,24.6,08.6,0680.5,30.9
2020-08-21T02:17:00Z,00000388,00000608,0011.69,0006.88,0003.77,0002.77,0000.75,0000.86,-000.17,-000.14,-000.24,24.6,08.5,0680.5,30.9
2020-08-21T02:18:00Z,00000388,00000608,0011.52,0008.08,0004.12,0001.96,0000.90,0000.62,0000.19,0000.21,0000.20,24.6,08.6,0680.5,30.9
2020-08-21T02:19:00Z,00000388,00000608,0012.54,0008.02,0004.73,0001.34,0000.97,0000.97,0000.08,0000.03,0000.13,24.6,08.5,0680.5,30.9
2020-08-21T02:20:00Z,00000388,00000608,0012.89,0008.28,0005.05,0001.26,0001.06,0000.72,0000.03,0000.29,0000.09,24.6,08.5,0680.5,30.9
2020-08-21T02:21:00Z,00000388,00000608,0013.38,0008.04,0004.84,0001.67,0000.72,0000.66,0000.00,-000.14,0000.10,24.6,08.5,0680.5,30.9
2020-08-21T02:22:00Z,00000388,00000608,0013.73,0008.25,0004.41,0001.80,0001.33,0000.67,0000.06,0000.15,-000.06,24.6,08.5,0680.5,30.9
2020-08-21T02:23:00Z,00000388,00000608,0012.89,0008.33,0004.88,0001.78,0001.14,0000.48,0000.05,0000.01,0000.20,24.6,08.5,0680.5,30.9
2020-08-21T02:24:00Z,00000388,00000608,0012.74,0008.25,0004.51,0000.93,0000.89,0000.62,-000.07,0000.17,0000.17,24.6,08.5,0680.5,30.9
2020-08-21T02:25:00Z,00000388,00000608,0012.40,0008.22,0004.50,0002.10,0001.21,0000.92,0000.27,0000.03,-000.03,24.5,08.5,0680.5,30.9
2020-08-21T02:26:00Z,00000388,00000608,0012.81,0007.69,0003.97,0002.17,0001.13,0000.45,-000.11,0000.06,0000.03,24.5,08.5,0680.5,30.9
2020-08-21T02:27:00Z,00000388,00000608,0012.12,0007.36,0004.64,0001.18,0000.88,0000.74,0000.07,0000.15,0000.18,24.5,08.5,0680.5,30.9
2020-08-21T02:28:00Z,00000388,00000608,0012.94,0008.41,0004.48,0001.60,0001.26,0000.92,-000.01,0000.11,0000.04,24.5,08.5,0680.5,30.9
2020-08-21T02:29:00Z,00000388,00000608,0011.56,0007.59,0003.66,0001.94,0001.07,0000.74,0000.17,-000.01,0000.24,24.5,08.5,0680.5,30.9
2020-08-21T02:30:00Z,00000388,00000608,0011.97,0007.54,0003.95,0001.92,0000.82,0000.45,-000.15,-000.04,-000.16,24.5,08.5,0680.5,30.9
2020-08-21T02:31:00Z,00000388,00000608,0013.13,0008.22,0004.65,0001.30,0001.05,0000.67,0000.19,0000.18,0000.20,24.5,08.4,0680.5,30.9
2020-08-21T02:32:00Z,00000388,00000608,0013.50,0008.39,0004.13,0001.77,0001.54,0000.13,0000.01,0000.13,0000.15,24.5,08.4,0680.5,30.9
2020-08-21T02:33:00Z,00000388,00000608,0013.59,0008.74,0004.32,0001.52,0000.78,0000.81,-000.06,-000.04,-000.10,24.5,08.4,0680.5,30.9
2020-08-21T02:34:00Z,00000388,00000608,0013.41,0008.58,0004.17,0001.94,0000.80,0000.69,0000.03,0000.03,0000.05,24.5,08.5,0680.5,30.9
2020-08-21T02:35:00Z,00000388,00000608,0013.74,0008.28,0004.58,0001.74,0001.14,0001.09,0000.10,0000.12,0000.16,24.5,08.4,0680.5,30.9
2020-08-21T02:36:00Z,00000388,00000608,0013.12,0008.75,0004.71,0001.63,0001.46,0000.77,0000.07,0000.06,0000.05,24.5,08.4,0680.5,30.9
2020-08-21T02:37:00Z,00000388,00000608,0014.32,0009.21,0004.82,0001.65,0000.63,0000.73,0000.07,0000.08,0000.16,24.5,08.4,0680.5,30.9
2020-08-21T02:38:00Z,00000388,00010608,0014.45,0009.00,0005.10,0001.75,0000.98,0000.55,0000.02,-000.04,0000.04,24.5,08.5,0680.5,30.9
2020-08-21T02:39:00Z,00000388,00000608,0014.28,0009.37,0004.91,0001.72,0001.16,0001.13,0000.04,0000.19,0000.20,24.5,08.4,0680.5,30.9
2020-08-21T02:40:00Z,00000388,00000608,0013.82,0009.01,0004.57,0001.72,0001.00,0000.88,-000.05,0000.04,0000.07,24.5,08.4,0680.5,30.9
2020-08-21T02:41:00Z,00000388,00000608,0015.80,0008.97,0004.44,0001.99,0000.96,0000.82,-000.00,0000.13,0000.02,24.5,08.5,0680.5,30.9
2020-08-21T02:42:00Z,00000388,00000608,0014.29,0008.95,0005.24,0000.80,0001.33,0000.61,0000.25,0000.09,0000.07,24.5,08.4,0680.5,30.9
2020-08-21T02:43:00Z,00000388,00000608,0015.31,0008.28,0004.30,0002.83,0000.91,0000.39,-000.06,-000.09,0000.08,24.5,08.4,0680.5,30.9
2020-08-21T02:44:00Z,00000388,00000608,0013.16,0009.68,0005.31,0001.24,0001.09,0000.67,-000.02,0000.09,0000.11,24.5,08.4,0680.5,30.9
2020-08-21T02:45:00Z,00000388,00000608,0015.39,0009.23,0004.56,0002.06,0000.91,0000.69,0000.05,0000.18,0000.15,24.5,08.4,0680.5,30.9
2020-08-21T02:46:00Z,00000388,00000608,0012.90,0008.57,0004.57,0001.93,0001.20,0000.72,0000.08,-000.03,0000.13,24.5,08.3,0680.5,30.9
2020-08-21T02:47:00Z,00000388,00000608,0012.53,0008.47,0004.39,0001.37,0001.04,0000.68,0000.13,0000.02,-000.10,24.5,08.4,0680.5,30.9
2020-08-21T02:48:00Z,00000388,00000608,0014.20,0008.94,0004.15,0001.67,0001.36,0000.71,-000.09,0000.11,0000.05,24.5,08.4,0680.5,30.9
2020-08-21T02:49:00Z,00000388,00000608,0013.72,0007.68,0004.23,0001.13,0000.96,0000.72,-000.01,0000.11,0000.21,24.5,08.4,0680.5,30.9
2020-08-21T02:50:00Z,00000388,00000608,0013.68,0007.97,0004.15,0002.51,0001.15,0000.53,0000.06,-000.03,0000.01,24.5,08.3,0680.5,30.9
2020-08-21T02:51:00Z,00000388,00000608,0012.55,0007.98,0004.51,0002.20,0001.28,0000.84,0000.10,0000.09,0000.14,24.5,08.3,0680.5,30.9
2020-08-21T02:52:00Z,00000388,00000608,0013.15,0008.40,0004.25,0001.85,0000.88,0000.73,-000.02,0000.09,0000.05,24.5,08.4,0680.5,30.9
2020-08-21T02:53:00Z,00000388,00000608,0013.00,0007.94,0004.63,0000.74,0000.77,0000.68,0000.03,0000.11,-000.03,24.5,08.3,0680.5,30.9
2020-08-21T02:54:00Z,00000388,00000608,0013.46,0008.17,0004.41,0001.09,0001.49,0000.45,0000.07,-000.12,0000.16,24.5,08.3,0680.5,30.9
2020-08-21T02:55:00Z,00000388,00000608,0013.18,0008.40,0004.84,0002.00,0001.05,0000.76,-000.03,0000.17,0000.14,24.5,08.3,0680.4,30.9
2020-08-21T02:56:00Z,00000388,00000608,0013.71,0008.49,0004.21,0001.60,0000.81,0000.77,0000.03,0000.03,0000.03,24.5,08.4,0680.4,30.9
2020-08-21T02:57:00Z,00000388,40000608,,,,,,,,,,24.5,08.7,0680.5,30.9
2020-08-21T02:58:00Z,00000388,60000608,,,,,,,,,,24.6,08.3,0679.4,30.9
2020-08-21T02:59:00Z,00000388,20000608,,,,,,,,,,24.7,08.1,0679.4,30.9
2020-08-21T03:00:00Z,00000388,20000608,,,,,,,,,,24.7,08.1,0679.5,30.9
2020-08-21T03:01:00Z,00000388,20000608,,,,,,,,,,24.7,08.1,0679.5,30.9
2020-08-21T03:02:00Z,00000388,20000608,,,,,,,,,,24.7,08.1,0679.5,30.9
2020-08-21T03:03:00Z,00000388,60000608,,,,,,,,,,24.7,08.1,0679.5,30.9
2020-08-21T03:04:00Z,00000388,40000608,0013.88,0009.67,0004.70,0001.62,0001.19,0000.86,-000.08,0000.03,0000.09,24.6,08.1,0680.4,30.9
2020-08-21T03:05:00Z,00000388,00000608,0014.53,0009.41,0004.50,0001.37,0001.24,0000.79,-002.34,-002.19,-002.08,24.5,08.2,0680.4,30.9
2020-08-21T03:06:00Z,00000388,00000608,0015.98,0009.28,0005.29,0001.30,0001.39,0001.17,-000.19,-000.31,-000.19,24.5,08.2,0680.4,30.9
2020-08-21T03:07:00Z,00000388,00000608,0013.99,0008.71,0004.51,0001.61,0000.75,0001.06,-000.16,-000.01,0000.02,24.5,08.3,0680.4,30.9
2020-08-21T03:08:00Z,00000388,00000608,0013.87,0009.68,0004.99,0001.37,0001.15,0000.95,-000.05,-000.03,-000.08,24.5,08.3,0680.4,30.9
2020-08-21T03:09:00Z,00000388,00000608,0014.27,0009.37,0004.79,0000.66,0001.12,0001.04,0000.15,0000.03,0000.14,24.5,08.2,0680.4,30.9
2020-08-21T03:10:00Z,00000388,00000608,0014.51,0009.96,0005.95,0001.49,0001.05,0000.85,-000.01,0000.15,0000.03,24.5,08.2,0680.4,30.9